User: anonymous   Login
Location: Absher
(46.5583°N, 107.9840°W)
Time: 02:30:43
(UTC+00:00)
Language:

TIGRISAT - Orbit

View from above orbital plane
View from above orbital plane
View from above satellite
View from above satellite

Ground track
Ground track

The orbit data is extracted from the following two-line orbital elements,

1 40043U 14033AK  24107.42637848  .00006516  00000-0  87736-3 0  9990
2 40043  97.6897 272.8670 0056836 143.8824 216.6248 14.78389346528332
Epoch (UTC): 16 April 2024 10:13:59
Eccentricity: 0.0056836
inclination: 97.6897°
perigee height: 594 km
apogee height: 674 km
right ascension of ascending node: 272.8670°
argument of perigee: 143.8824°
revolutions per day: 14.78389346
mean anomaly at epoch: 216.6248°
orbit number at epoch: 52833

The dashed part of the orbit path shows where the satellite is in the earth's shadow,  

DLR